Regional Weather Roundup
Issued by NWS Charleston, SC

Home | Current Version | Previous Version | Text Only | Print | Product List | Glossary On
Versions: 1 2 3 4 5 6 7 8 9 10 11 12 13 14 15 16 17 18 19 20 21 22 23 24 25 26 27 28 29 30 31 32 33 34 35 36 37 38 39 40 41 42 43 44 45 46 47 48 49 50
000
ASUS42 KCHS 231427
RWRCHS

REGIONAL WEATHER ROUNDUP
NATIONAL WEATHER SERVICE CHARLESTON SC
1000 AM EDT FRI JUN 23 2017

NOTE: "FAIR" INDICATES FEW OR NO CLOUDS BELOW 12,000 FEET WITH NO
SIGNIFICANT WEATHER AND/OR OBSTRUCTIONS TO VISIBILITY.

NOT ALL STATIONS ARE QUALITY CONTROLLED. USE DATA WITH CAUTION...
ESPECIALLY DEWPOINT OBSERVATIONS.

SCZ027-030-031-034>040-042>050-231500-
...SOUTHEAST SOUTH CAROLINA...

CITY           SKY/WX    TMP DP  RH WIND       PRES   REMARKS
N CHARLESTON   CLOUDY    84  74  71 SW13      30.05S HX  91
WATERFRONT PRK   N/A     82  77  84 SW9       30.04R HX  90
JOHNS ISLAND   CLOUDY    84  77  79 S16G22    30.06S HX  94
PINOPOLIS        N/A     82  77  83 SW7       29.99R HX  91
MONCKS CORNER  CLOUDY    82  75  78 SW10      30.05S
SUMMERVILLE    PTSUNNY   82  75  78 S7        30.05F
BEAUFORT MCAS  MOSUNNY   85  76  74 S9        30.05F HX  94
BEAUFORT ARPT  FAIR      84  73  70 SW6       30.05F HX  91
HILTON HEAD IS PTSUNNY   84  75  74 S8        30.07S HX  92
WALTERBORO     CLOUDY    82  75  78 SW8       30.06S
ALLENDALE      PTSUNNY   81  75  83 VRB5      30.04F

...SOUTHERN MIDLANDS AND PEE DEE...

CITY           SKY/WX    TMP DP  RH WIND       PRES   REMARKS
GEORGETOWN     FAIR      82  77  83 S9        30.06S HX  91
KINGSTREE      CLOUDY    81  73  78 SW6       30.04F
ORANGEBURG     PTSUNNY   81  75  82 SW9       30.05S
BARNWELL       CLOUDY    84  75  74 SW6       30.04F HX  92
AIKEN          FAIR      81  73  78 S7        30.07F
MANNING        CLOUDY    81  77  89 W20G29    30.05S
COLUMBIA       CLOUDY    84  73  69 SW10      30.02S HX  90
SUMTER         MOSUNNY   81  73  78 SW13      30.01F
FLORENCE       CLOUDY    81  75  82 SW12G21   30.04S
MYRTLE BEACH   MOSUNNY   82  73  74 SW12      30.06S
N MYRTLE BEACH MOSUNNY   82  76  81 SW15      30.04F

$$

GAZ063-065-086>088-099>101-113>116-118-119-134>141-150-231500-
...SOUTHEAST GEORGIA...

CITY           SKY/WX    TMP DP  RH WIND       PRES   REMARKS
SAVANNAH ARPT  CLOUDY    85  73  67 S8        30.06F HX  91
HUNTER AAF     MOSUNNY   84  75  73 S5        30.04S HX  92
FORT STEWART   CLOUDY    84  73  70 SW6       30.04F HX  91
STATESBORO     CLOUDY    83  79  86 SW3       30.05S HX  94
SYLVANIA       CLOUDY    82  78  86 SW3       30.06S HX  92
CLAXTON        FAIR     N/A N/A N/A S5        30.05F

...CSRA...CENTRAL AND FAR SOUTHEAST GEORGIA...

CITY           SKY/WX    TMP DP  RH WIND       PRES   REMARKS
THOMSON        MOSUNNY   82  72  71 W9        30.09S
AUGUSTA-BUSH   MOSUNNY   85  74  69 SW6       30.03S HX  92
AUGUSTA-DANIEL SUNNY     84  71  65 SW6       30.05S
SWAINSBORO     FAIR      81  73  78 CALM      30.06S
VIDALIA        CLOUDY    82  77  83 W3        30.06S HX  91
EASTMAN        FAIR      82  68  61 W8        30.08S
HAZLEHURST     FAIR      85  79  83 SW6       30.05S HX  98
ALMA           MOSUNNY   84  75  74 S8        30.06S HX  92
WAYCROSS       NOT AVBL
JESUP          FAIR      82  73  74 SW3       30.07S
BAXLEY         PTSUNNY   86  82  89 S7        30.05F HX 105
BRUNSWICK      MOSUNNY   86  75  70 SW9       30.07F HX  95
SAINT SIMONS   CLOUDY    84  73  69 SW10      30.07S HX  90

$$

SCZ027-028-034-036>038-045-046-048>050-GAZ119-141-231500-
...LAKE AND SUPPLEMENTAL COASTAL OBSERVATIONS...

STATION/POSITION TIME  TEMP    WIND        PRES    WAVE   SWELL
                       AIR SEA DIR/SP/G            HT/PER HT/PER/DIR
                 (UTC) (F)     (DEG/KT/KT) (MB)    (FT/S) (FT/S/D)
WINYAH BAY       1345   83     220/  9     1017.0S
LAKE MURRAY      1350   80     230/  6/ 11 1015.6F
ACE BASIN NERRS  1345   83     170/  1     1018.0S
FORT PULASKI     1400   83 83  210/  8/ 12 1018.2
SAPELO ISLAND    1400   84     200/  9     1018.0

$$

ANZ835-935-AMZ111-154-330-350-352-354-370-450-454-472-231500-
...C-MAN AND BUOY OBSERVATIONS...

STATION/POSITION TIME  TEMP    WIND        PRES    WAVE   SWELL
                       AIR SEA DIR/SP/G            HT/PER HT/PER/DIR
                 (UTC) (F)     (DEG/KT/KT) (MB)    (FT/S) (FT/S/D)
BUOY 41004       1410   80 81  220/ 14/ 16 1018.0
BUOY 41008       1350   80 81  190/ 14/ 17 1017.9R   4/ 5   2/100/ 9
FOLLY BEACH CMAN 1400   81     210/ 17/ 19 1018.6S
CAPERS NEARSHORE 1408   86 82  230/ 16/ 21 1017.6S
FRIPP NEARSHORE  1408   82 83  210/ 14/ 19 1017.7R


STATION/POSITION TIME  TEMP    WIND        PRES    WAVE   SWELL
                       AIR SEA DIR/SP/G            HT/PER HT/PER/DIR
                 (UTC) (F)     (DEG/KT/KT) (MB)    (FT/S) (FT/S/D)
5E ST. MARYS GA  1400      80                N/A     3/ 9
FRYING PAN BUOY  1410   81 81  230/ 16/ 17 1017.9
BUOY 41025       1250   80 80  240/ 14/ 16 1017.0    3/ 8   2/180/ 8
CAPE LOOKOUT NC  1400   81     230/ 10/ 14 1016.8F
BUOY 41002       1350   80 81  220/ 10/ 12 1019.8R   4/ 8   3/100/ 8
BUOY 41010       1410   82 83  150/ 10/ 12 1019.0
ST AUGUSTINE FL  1400   78 77  150/  8/  9 1019.4R


$$




USA.gov is the U.S. government's official web portal to all federal, state and local government web resources and services.